GEFSCGP_850_meantemp_210.txt.gz
Temperature
10 8 8 8 9 10 10 9 10 10 10 9 8 9 9 10 10 10 10 10 11 11 11 11 11 11 10 10 10 10 10 9 9 9 9 9 9 8 8 8 8 8 8 8
8 8 9 9 9 10 10 9 9 9 10 9 8 9 9 9 9 9 10 10 10 11 11 10 10 10 10 10 10 9 9 9 9 9 9 8 8 8 8 8 8 8 8 8
8 9 10 10 9 9 9 9 9 9 9 9 9 8 9 9 9 10 10 10 11 10 10 10 10 10 10 9 9 9 9 9 9 9 8 8 8 8 8 8 8 8 8 8
8 9 9 9 9 9 9 9 9 9 8 6 8 7 8 8 8 8 9 9 10 10 10 10 9 9 9 9 9 9 9 9 8 8 8 8 8 8 8 8 8 8 7 7
8 8 8 8 9 9 8 9 8 8 7 6 6 7 7 7 8 8 8 9 10 10 10 9 9 9 9 9 9 9 8 8 8 8 8 8 8 8 7 7 7 7 7 7
8 8 8 8 8 8 8 8 7 6 6 6 6 6 7 7 8 8 8 9 9 9 9 9 9 9 9 8 8 8 8 8 8 8 7 7 7 7 7 7 7 7 7 7
7 7 8 8 7 8 7 6 6 6 6 6 7 6 6 8 8 8 8 9 9 9 9 9 8 8 8 8 8 8 8 8 8 7 7 7 7 7 7 7 7 7 6 6
5 5 7 7 7 6 6 7 6 6 6 6 6 6 7 8 8 8 9 9 9 8 8 8 8 8 8 8 8 7 7 7 7 7 7 7 7 6 6 6 6 6 6 6
5 5 6 7 7 7 6 6 6 6 6 6 6 6 7 7 7 7 7 7 8 8 8 8 8 8 8 7 7 7 7 7 7 7 7 6 6 6 6 6 6 6 6 6
5 5 5 6 6 6 6 6 5 5 6 6 6 6 6 6 6 6 6 6 7 7 7 7 7 7 7 7 7 7 7 7 6 6 6 6 6 6 6 6 6 6 6 5
5 4 4 4 5 5 5 5 5 4 4 6 6 6 6 6 6 5 5 6 6 7 7 7 7 7 7 7 7 6 6 6 6 6 6 6 6 6 6 6 5 5 5 5
4 3 2 3 4 5 5 5 4 4 4 4 4 5 6 6 5 5 5 6 6 7 7 6 6 6 6 6 6 6 6 6 6 6 5 5 5 5 5 5 5 5 5 5
4 3 2 3 4 4 4 4 4 4 3 3 3 5 6 5 5 6 5 5 6 6 6 6 6 6 6 6 6 6 5 5 5 5 5 5 5 5 5 5 5 5 5 5
4 2 2 3 4 3 3 3 4 3 2 2 3 4 5 5 4 4 5 5 5 5 5 5 5 5 5 5 5 5 5 5 5 5 5 5 5 4 5 5 5 4 4 4
2 1 2 2 3 3 3 3 3 3 3 3 3 4 4 4 4 4 4 4 4 4 4 4 4 4 4 4 4 5 5 5 5 5 5 4 4 4 4 4 4 4 4 4
1 1 1 1 3 2 2 3 3 3 3 3 3 3 4 4 4 3 3 3 3 4 4 4 4 4 4 4 4 4 4 4 4 4 4 4 4 4 4 4 4 4 4 4
0 0 0 0 2 2 1 2 3 2 2 3 3 3 3 2 2 3 3 3 3 3 3 3 3 3 3 3 3 3 3 4 4 4 4 4 4 4 4 4 4 3 3 3
-0 -0 -0 -0 0 0 2 2 3 2 2 2 2 2 2 2 2 3 3 3 3 2 2 3 3 3 3 3 3 3 3 3 3 3 3 3 3 3 3 3 3 3 3 3
-0 -0 -1 -1 -0 0 1 1 1 1 1 1 1 1 1 2 1 2 3 2 2 2 2 2 2 2 3 3 2 2 3 3 3 3 3 3 3 3 3 3 3 3 2 2
-1 -1 -1 -1 -0 0 1 1 2 1 0 1 1 0 0 0 -0 1 2 1 1 1 1 2 2 2 2 2 2 2 2 2 2 3 3 3 3 3 3 3 2 2 2 2
-1 -2 -2 -1 -1 -0 0 1 1 0 0 1 1 0 -0 -0 0 1 1 0 1 1 1 1 1 1 1 2 1 2 2 2 2 2 2 2 2 2 2 2 2 2 2 2
-2 -2 -2 -2 -1 -0 0 -0 -0 -0 0 0 -0 -0 -1 -0 -0 -0 -0 -0 0 0 0 0 0 1 1 1 1 1 1 2 2 2 2 2 2 2 2 2 2 1 1 1
-2 -1 -2 -2 -1 -0 0 -0 0 0 -0 -0 -1 -1 -1 -1 -1 -1 -1 -1 -1 -1 -1 -0 -0 -0 0 0 0 1 1 1 1 1 1 1 1 1 1 1 1 1 1 0
-3 -2 -2 -2 -2 -1 -1 -1 -1 -1 -1 -1 -1 -2 -2 -2 -2 -2 -2 -2 -2 -1 -1 -1 -1 -1 -1 -0 -0 -0 0 0 1 1 1 1 1 1 1 0 0 0 -0 -0
-3 -3 -3 -3 -3 -2 -2 -2 -2 -2 -2 -2 -2 -2 -2 -3 -3 -3 -2 -2 -2 -2 -2 -2 -2 -2 -1 -1 -1 -1 -0 -0 -0 0 0 0 0 -0 -0 -0 -0 -1 -1 -1
-4 -4 -4 -3 -3 -3 -3 -3 -3 -3 -3 -3 -3 -3 -3 -3 -3 -3 -3 -3 -3 -3 -2 -2 -2 -2 -2 -2 -1 -1 -1 -1 -1 -0 -0 -0 -1 -1 -1 -1 -1 -1 -1 -1

GEFSCGP_850_meantemp_216.txt.gz
Temperature
8 7 7 7 7 8 8 7 8 8 8 7 7 7 8 8 8 7 8 8 9 10 10 10 10 10 10 10 10 10 10 10 10 9 9 9 9 9 9 8 8 8 8 8
7 7 8 8 7 8 7 7 7 8 8 7 6 6 7 7 7 8 8 8 9 9 9 10 10 10 10 10 10 10 10 9 9 9 9 9 9 9 8 8 8 8 8 8
8 8 8 8 7 7 7 7 7 7 7 7 7 7 7 7 7 7 8 8 9 9 9 10 9 9 9 9 9 9 9 9 9 9 9 8 8 8 8 8 8 8 8 8
7 7 7 7 7 7 7 7 7 7 6 5 6 6 7 7 6 6 7 7 8 9 9 9 9 9 9 9 9 9 9 9 9 8 8 8 8 8 8 8 8 8 8 8
7 7 7 7 7 7 7 6 6 6 6 5 5 5 6 6 6 7 6 7 7 8 8 9 9 9 9 9 9 8 8 8 8 8 8 8 8 8 8 7 7 7 7 7
6 6 6 7 6 6 6 5 5 4 4 5 5 5 6 5 6 6 6 7 7 8 8 8 8 8 8 8 8 8 8 8 8 8 8 7 7 7 7 7 7 7 7 7
6 6 6 6 6 6 5 5 5 5 4 5 5 5 5 5 5 5 5 6 7 7 7 7 7 8 8 8 7 7 7 7 7 7 7 7 7 7 7 7 7 7 7 7
5 5 5 5 5 5 5 5 5 5 5 4 4 4 5 5 5 5 5 6 6 6 7 7 7 7 7 7 7 7 7 7 7 7 7 7 7 7 7 7 7 6 6 6
3 4 5 5 5 5 4 4 5 4 4 4 4 4 4 5 4 4 4 5 5 5 6 6 6 7 7 7 7 7 7 7 7 6 6 6 6 6 6 6 6 6 6 6
3 3 4 4 5 5 4 3 3 4 4 4 5 4 4 5 4 4 3 4 4 5 5 6 6 6 6 6 6 6 6 6 6 6 6 6 6 6 6 6 6 6 6 6
3 3 3 3 3 3 3 3 3 3 3 4 4 4 4 4 4 3 3 4 4 4 4 5 5 5 6 6 6 6 6 6 6 6 6 6 6 6 5 5 5 5 5 5
2 1 1 2 3 3 3 3 2 3 2 2 2 3 4 3 3 3 3 3 4 4 4 4 5 5 5 5 5 5 5 5 5 5 5 5 5 5 5 5 5 5 5 5
2 2 2 2 3 2 2 2 2 2 1 1 1 3 4 2 2 2 2 3 3 3 3 4 4 4 4 4 4 5 5 5 5 4 5 5 5 5 5 4 4 4 4 5
3 1 1 2 2 2 2 2 2 2 1 1 1 3 3 2 2 2 2 2 2 3 3 3 3 3 4 4 4 4 4 4 4 4 4 4 4 4 4 4 4 4 4 4
1 0 0 1 1 1 1 2 2 1 1 1 2 2 2 2 1 2 2 1 1 2 2 2 2 2 3 3 4 4 4 4 4 4 4 4 4 4 4 4 4 4 4 4
-0 -0 -0 -0 1 1 1 1 1 1 1 1 1 1 1 1 2 1 1 1 0 1 1 1 1 2 2 2 3 3 3 3 3 3 3 3 3 3 3 3 3 3 3 3
-1 -1 -1 -1 -0 0 -0 -0 0 0 -0 0 0 0 0 0 0 0 0 0 0 0 0 1 1 1 1 2 2 2 3 3 3 3 3 3 3 3 3 3 3 3 3 3
-2 -2 -2 -2 -1 -1 0 0 0 -0 -1 -1 -1 -1 -1 -0 -0 0 0 0 -0 -0 -0 0 0 1 1 1 1 2 2 2 2 2 2 2 2 2 3 3 3 3 3 3
-2 -2 -2 -2 -2 -1 -1 -0 -1 -1 -1 -1 -1 -1 -1 -1 -1 -0 0 -0 -0 -0 -0 -0 0 0 1 1 1 1 1 1 1 2 2 2 2 2 2 2 2 2 2 2
-2 -2 -2 -2 -2 -1 -1 -1 -1 -1 -2 -1 -2 -2 -2 -2 -2 -1 -1 -1 -1 -1 -1 -1 -0 0 0 0 0 0 0 1 1 1 1 1 1 1 2 2 2 2 2 2
-3 -3 -3 -3 -2 -2 -2 -1 -1 -1 -1 -1 -2 -2 -2 -3 -2 -2 -2 -2 -1 -1 -1 -1 -1 -0 -0 -0 -0 -0 -0 0 0 0 1 1 1 1 1 1 1 1 1 1
-3 -3 -3 -3 -3 -2 -2 -2 -2 -2 -2 -2 -2 -2 -3 -3 -3 -3 -3 -2 -2 -2 -2 -1 -1 -1 -1 -1 -1 -1 -1 -0 -0 -0 0 0 0 0 1 1 1 1 1 1
-4 -3 -3 -3 -2 -2 -2 -2 -2 -2 -3 -3 -3 -3 -4 -4 -4 -4 -3 -3 -3 -3 -2 -2 -2 -2 -2 -1 -1 -1 -1 -1 -1 -1 -0 -0 -0 -0 -0 0 0 0 0 0
-4 -4 -4 -4 -4 -3 -3 -3 -3 -3 -3 -4 -4 -4 -4 -4 -4 -4 -4 -4 -4 -3 -3 -3 -3 -3 -2 -2 -2 -2 -2 -2 -1 -1 -1 -1 -1 -1 -1 -1 -1 -0 -0 -1
-4 -5 -5 -5 -4 -4 -3 -3 -4 -4 -4 -4 -4 -5 -5 -5 -5 -5 -5 -5 -4 -4 -4 -4 -3 -3 -3 -3 -2 -2 -2 -2 -2 -2 -1 -1 -1 -1 -1 -1 -1 -1 -1 -1
-5 -5 -5 -4 -4 -5 -5 -4 -5 -5 -5 -5 -5 -5 -5 -5 -6 -5 -5 -5 -5 -4 -4 -4 -4 -4 -3 -3 -3 -3 -3 -3 -3 -2 -2 -2 -2 -2 -2 -2 -2 -2 -2 -2

GEFSCGP_850_meantemp_222.txt.gz
Temperature
10 12 12 12 12 12 12 12 12 12 11 10 11 12 12 11 10 10 10 10 9 9 9 9 9 9 9 10 10 10 9 9 9 9 9 9 9 9 9 9 9 9 9 9
11 11 11 10 10 10 11 11 12 11 10 10 11 11 12 11 10 10 10 9 9 8 8 8 8 8 9 9 9 9 9 9 9 9 9 9 9 9 9 8 8 8 8 8
11 10 9 9 9 10 10 11 11 10 10 9 10 12 12 11 10 9 8 8 8 8 8 7 8 8 8 8 8 9 9 9 9 9 9 9 8 8 8 8 8 8 8 8
10 9 9 9 9 9 10 10 9 9 10 11 10 11 13 11 11 10 9 8 7 7 7 7 7 8 8 8 8 8 8 8 8 8 8 8 8 8 8 8 8 8 8 8
9 8 8 9 9 9 9 8 8 9 10 10 10 10 12 11 10 10 9 7 6 6 6 6 7 7 7 7 7 7 7 8 8 8 8 8 8 8 8 8 7 7 7 7
8 7 7 8 7 8 8 8 8 9 9 9 10 10 11 11 9 9 8 7 6 5 5 5 6 6 7 7 7 7 7 7 7 7 7 7 7 7 7 7 7 7 7 7
8 8 7 7 7 7 8 9 9 9 9 10 9 9 10 9 8 8 7 6 5 5 5 5 5 6 6 6 7 7 7 7 7 7 7 7 7 7 7 7 7 7 7 7
8 8 7 6 7 7 7 8 9 9 10 10 8 8 9 8 6 6 5 5 5 4 4 4 5 5 5 6 6 6 6 6 6 6 7 6 6 6 6 7 7 7 6 6
7 7 6 6 6 7 7 7 7 8 8 8 9 9 8 7 6 6 5 5 4 4 4 4 4 5 5 5 5 6 6 6 6 6 6 6 6 6 6 6 6 6 6 6
6 6 6 5 5 6 6 7 6 7 7 8 9 9 8 7 6 6 5 5 4 4 4 4 4 4 5 5 5 5 5 5 5 5 5 6 6 6 6 6 6 6 6 6
5 5 6 5 5 6 5 5 6 7 7 7 8 9 7 6 6 5 5 4 4 3 3 3 4 4 4 4 5 5 5 5 5 5 5 5 5 5 5 5 5 5 5 5
4 5 5 6 5 5 5 6 6 6 6 6 7 7 6 5 5 5 4 4 3 3 2 2 3 3 3 4 4 4 4 4 4 4 4 5 5 5 5 5 5 5 5 5
4 4 4 5 5 4 4 4 4 5 5 5 5 7 6 5 4 4 3 3 2 2 2 2 2 2 2 2 3 3 4 4 4 4 4 4 4 4 4 4 4 4 4 4
4 4 4 5 5 4 4 4 4 4 4 5 5 6 6 5 4 4 3 2 2 1 1 1 1 1 1 1 2 3 3 3 3 3 3 3 4 4 4 4 4 4 4 4
3 3 3 4 4 4 3 3 3 3 4 4 5 5 5 4 4 3 2 2 1 1 0 0 0 0 1 1 1 2 2 3 3 3 3 3 3 3 3 3 3 3 3 3
2 2 2 2 3 3 2 3 3 3 3 3 4 4 4 3 3 2 1 1 0 0 -0 -0 -0 -0 -0 -0 0 1 1 2 2 2 2 2 2 2 2 3 3 3 3 3
1 1 1 2 2 2 2 2 2 2 2 2 2 3 3 2 2 1 0 0 -0 -1 -1 -1 -1 -1 -1 -1 -0 0 1 1 1 1 1 2 2 2 2 2 2 2 2 3
0 0 1 1 1 1 3 2 2 1 1 1 1 1 1 1 -0 -0 -0 -1 -1 -1 -2 -2 -2 -2 -1 -1 -1 -0 0 0 1 1 1 1 1 1 1 1 1 2 2 2
-0 -0 0 0 1 2 2 1 0 0 0 0 0 0 -0 -1 -1 -0 -1 -2 -2 -2 -2 -2 -2 -2 -2 -1 -1 -1 -0 -0 -0 -0 -0 0 0 0 0 1 1 1 1 1
-1 -1 -0 -0 -0 1 1 -0 -1 0 0 -0 -1 -1 -1 -2 -0 0 -2 -3 -3 -3 -3 -3 -3 -3 -2 -2 -1 -1 -1 -1 -1 -1 -1 -1 -0 -0 -0 0 0 0 0 1
-1 -1 -1 -1 -0 1 0 -1 -1 -0 -0 -2 -2 -2 -2 -2 -2 -3 -3 -3 -3 -3 -3 -3 -3 -3 -3 -2 -2 -2 -2 -1 -1 -1 -1 -1 -1 -1 -1 -1 -0 -0 -0 -0
-1 -1 -1 -1 -1 -0 -1 -1 -1 -1 -2 -3 -3 -3 -4 -4 -4 -4 -4 -4 -4 -4 -4 -4 -4 -3 -3 -3 -3 -2 -2 -2 -2 -2 -2 -1 -1 -1 -1 -1 -1 -1 -1 -1
-1 -1 -1 -1 -0 -1 -2 -2 -3 -3 -3 -4 -4 -4 -5 -5 -5 -5 -5 -5 -5 -5 -5 -4 -4 -4 -4 -3 -3 -3 -3 -3 -2 -2 -2 -2 -2 -2 -1 -1 -1 -1 -1 -1
-2 -3 -2 -2 -2 -2 -3 -3 -4 -4 -4 -5 -5 -5 -5 -6 -6 -6 -6 -5 -5 -5 -5 -5 -5 -5 -4 -4 -4 -4 -3 -3 -3 -3 -3 -2 -2 -2 -2 -2 -2 -2 -2 -2
-2 -3 -3 -3 -2 -3 -3 -4 -4 -5 -5 -5 -6 -6 -6 -6 -6 -6 -6 -6 -6 -6 -6 -6 -5 -5 -5 -5 -5 -4 -4 -4 -4 -3 -3 -3 -3 -3 -3 -3 -2 -2 -2 -2
-3 -4 -3 -3 -3 -4 -4 -5 -5 -6 -6 -6 -6 -6 -7 -7 -7 -7 -7 -7 -7 -6 -6 -6 -6 -6 -5 -5 -5 -5 -5 -4 -4 -4 -4 -4 -4 -3 -3 -3 -3 -3 -3 -2

GEFSCGP_850_meantemp_228.txt.gz
Temperature
13 11 11 12 13 13 13 12 12 13 13 12 11 11 12 12 12 12 12 11 11 10 10 10 9 9 9 9 9 9 9 9 9 9 9 9 9 9 9 9 9 9 9 9
12 11 12 12 12 12 12 11 11 12 13 12 11 11 12 12 11 11 11 11 10 10 9 9 9 9 9 8 8 8 8 9 9 9 9 9 9 9 9 9 9 9 9 9
11 11 12 12 11 11 11 11 11 11 11 11 10 10 11 11 12 11 10 10 9 9 8 8 8 8 8 8 8 8 8 8 8 8 8 8 8 8 9 9 9 9 9 9
11 11 11 11 10 11 10 11 10 10 9 8 10 8 10 11 10 10 9 9 8 8 7 7 7 7 7 7 7 8 8 8 8 8 8 8 8 8 8 8 8 8 8 8
10 10 9 9 10 10 10 10 9 9 9 8 9 8 9 11 10 9 8 8 8 7 7 6 6 6 6 7 7 7 7 7 7 7 7 8 8 8 8 8 8 8 8 8
10 10 9 9 9 9 9 9 9 9 8 7 8 8 8 9 9 8 8 8 7 6 6 6 5 6 6 6 6 6 6 6 7 7 7 7 7 7 7 7 7 7 8 8
9 9 9 8 8 8 8 7 7 7 6 7 9 8 7 8 8 8 7 7 7 6 6 5 5 5 5 5 5 5 6 6 6 6 6 6 6 6 7 7 7 7 7 7
8 8 8 8 7 7 7 7 6 6 7 7 8 7 6 8 8 8 7 7 6 6 5 5 4 4 4 4 5 5 5 5 6 6 6 6 6 6 6 6 6 6 7 7
6 7 8 8 8 7 7 7 7 6 6 6 7 7 7 7 6 6 6 6 6 5 5 4 4 4 4 4 4 4 5 5 5 5 5 5 5 6 6 6 6 6 6 6
6 6 7 7 7 7 7 7 6 5 5 6 7 7 6 6 5 6 5 5 5 5 4 4 4 3 3 4 4 4 4 4 4 4 5 5 5 5 5 5 5 5 5 6
6 5 6 6 6 6 6 6 6 5 5 5 5 5 7 6 5 5 5 5 5 4 4 4 3 3 3 3 3 3 3 4 4 4 4 4 4 4 4 5 5 5 5 5
5 4 4 6 6 6 6 6 5 4 4 5 4 4 6 5 5 5 5 5 4 4 3 3 3 2 2 2 2 2 2 3 3 3 3 3 4 4 4 4 4 4 4 5
4 3 3 4 5 5 5 5 5 4 3 3 3 4 5 5 4 4 4 4 3 3 3 2 2 2 1 1 1 1 2 2 2 3 3 3 3 3 3 3 4 4 4 4
4 3 3 3 4 4 3 4 4 3 2 2 3 4 4 3 3 3 3 3 3 2 2 2 1 1 1 1 0 0 1 1 2 2 2 2 2 3 3 3 3 3 3 4
3 2 2 3 4 4 3 3 3 3 2 2 3 3 3 3 2 2 2 2 2 2 1 1 0 0 0 0 -0 -0 -0 0 1 1 1 2 2 2 2 2 2 2 3 3
2 1 1 1 3 3 3 3 3 3 2 2 2 2 2 2 2 2 2 1 1 1 0 -0 -0 -1 -1 -1 -1 -1 -1 -0 -0 0 1 1 1 1 1 1 2 2 2 2
1 1 0 1 2 2 1 1 2 1 1 1 1 1 1 1 1 1 1 0 0 -0 -0 -1 -1 -1 -1 -1 -1 -1 -1 -1 -1 -1 -0 0 0 1 1 1 1 1 1 1
0 0 -0 -0 1 -0 1 2 2 1 1 1 0 0 1 0 -0 -0 -0 -1 -1 -1 -2 -2 -2 -2 -2 -2 -2 -2 -2 -1 -1 -1 -1 -1 -0 -0 -0 0 0 0 1 1
1 -0 -1 -1 -0 0 1 1 1 0 -1 -0 -0 -0 -0 -1 -1 -1 -1 -2 -2 -3 -3 -2 -2 -2 -3 -3 -3 -3 -2 -2 -2 -2 -1 -1 -1 -1 -1 -1 -0 -0 -0 0
0 -0 -1 -1 -1 -0 -0 0 1 0 -2 -1 -1 -1 -1 -2 -3 -2 -2 -3 -3 -3 -3 -3 -3 -3 -3 -3 -3 -3 -3 -3 -2 -2 -2 -2 -1 -1 -1 -1 -1 -1 -1 -0
-1 -1 -2 -2 -1 -1 -1 -0 -0 -2 -2 -1 -2 -2 -2 -3 -3 -3 -4 -4 -4 -4 -4 -4 -4 -4 -4 -4 -4 -4 -4 -3 -3 -3 -2 -2 -2 -2 -2 -2 -1 -1 -1 -1
-1 -2 -2 -2 -2 -2 -1 -1 -2 -2 -2 -2 -2 -3 -3 -4 -4 -4 -4 -5 -5 -5 -5 -5 -4 -4 -4 -4 -4 -4 -4 -4 -3 -3 -3 -3 -2 -2 -2 -2 -2 -2 -2 -2
-1 -2 -2 -2 -2 -1 -1 -2 -2 -2 -3 -3 -3 -4 -4 -5 -5 -5 -5 -5 -5 -6 -5 -5 -5 -5 -5 -4 -4 -4 -4 -4 -4 -4 -4 -3 -3 -3 -3 -3 -3 -3 -3 -3
-1 -1 -2 -2 -2 -1 -2 -2 -3 -3 -4 -4 -4 -5 -5 -5 -6 -6 -6 -6 -6 -6 -6 -6 -6 -5 -5 -5 -5 -5 -5 -5 -5 -4 -4 -4 -4 -3 -3 -3 -3 -3 -3 -3
-2 -2 -3 -3 -3 -2 -3 -3 -4 -4 -5 -5 -5 -5 -6 -6 -6 -7 -7 -7 -7 -7 -7 -6 -6 -6 -6 -5 -5 -5 -5 -5 -5 -5 -5 -4 -4 -4 -4 -4 -4 -4 -4 -4
-3 -3 -4 -4 -3 -4 -4 -4 -4 -5 -5 -6 -6 -6 -6 -7 -7 -7 -7 -7 -7 -7 -7 -7 -6 -6 -6 -6 -6 -6 -6 -6 -6 -5 -5 -5 -5 -5 -5 -5 -5 -4 -4 -4

GEFSCGP_850_meantemp_234.txt.gz
Temperature
10 7 7 8 8 9 9 9 8 8 9 8 8 8 8 8 8 7 7 7 7 8 8 8 9 9 9 9 9 9 9 9 9 9 9 9 9 9 9 9 9 9 9 9
7 7 8 9 9 9 8 8 7 8 8 8 7 7 7 7 7 7 7 7 7 7 8 8 8 8 8 8 8 8 8 8 8 8 8 8 8 9 9 9 9 9 9 9
8 8 9 9 8 8 8 7 7 7 7 7 7 6 6 7 7 7 6 6 6 6 7 7 7 7 8 8 8 8 8 7 7 7 7 7 7 8 8 8 8 8 8 8
7 8 8 8 7 7 7 7 7 7 6 5 6 5 5 5 5 5 5 5 5 6 6 6 6 7 7 7 7 7 7 7 7 7 7 7 7 7 7 8 8 8 8 8
7 7 7 7 7 7 7 7 7 7 6 5 5 4 4 5 5 5 4 5 5 5 5 5 6 6 6 6 6 6 6 6 6 6 6 6 6 6 7 7 7 7 7 8
6 7 7 7 7 7 7 6 6 4 4 4 5 4 4 4 4 4 4 4 4 4 4 5 5 5 5 6 6 6 6 6 6 6 6 6 6 6 6 6 7 7 7 7
5 6 6 7 6 6 5 5 4 4 3 4 5 4 3 4 4 4 4 4 4 4 4 4 4 4 4 5 5 5 5 5 5 5 5 5 5 5 6 6 6 6 6 7
4 4 5 6 6 5 5 5 4 4 3 3 4 3 3 4 4 4 4 3 3 3 3 3 3 3 4 4 4 4 4 4 4 4 4 5 5 5 5 5 5 6 6 6
3 4 5 5 6 5 5 4 4 3 2 2 2 2 3 4 3 3 3 2 2 2 2 2 3 3 3 3 3 3 3 3 3 3 4 4 4 4 5 5 5 5 5 5
3 3 4 4 5 5 5 4 2 2 3 3 3 2 2 2 2 2 2 2 2 2 2 2 2 2 2 2 3 3 3 3 3 3 3 3 3 4 4 4 4 5 5 5
3 2 2 3 3 4 4 3 3 2 2 2 2 2 2 2 2 1 1 1 1 1 1 1 1 2 2 2 2 2 2 2 2 2 2 3 3 3 3 4 4 4 4 4
2 1 1 2 3 3 3 3 2 1 1 1 1 1 2 1 1 1 1 1 1 1 1 1 1 1 1 1 1 1 1 1 1 2 2 2 2 3 3 3 3 3 4 4
2 1 1 2 3 2 2 2 2 1 0 -0 0 1 1 0 1 1 0 0 0 0 -0 0 0 0 0 1 1 0 0 0 1 1 1 1 2 2 2 3 3 3 3 3
3 0 0 1 2 1 1 1 1 1 -0 -0 -0 -0 0 -0 -0 -0 -0 -0 -0 -0 -1 -1 -1 -1 -0 -0 -0 -0 -0 -0 -0 0 0 1 1 1 2 2 2 2 2 3
1 -0 -0 0 1 1 1 1 1 0 -0 -0 -1 -1 -0 -0 -1 -1 -1 -1 -1 -1 -1 -1 -2 -2 -1 -1 -1 -1 -1 -1 -1 -1 -0 -0 0 1 1 1 2 2 2 2
-1 -1 -1 -1 0 0 0 -0 -0 -0 -0 -1 -1 -1 -1 -1 -1 -1 -1 -2 -2 -2 -2 -2 -2 -2 -2 -2 -2 -2 -2 -2 -2 -1 -1 -1 -0 -0 0 1 1 1 1 1
-1 -2 -2 -2 -1 -1 -1 -1 -1 -1 -2 -2 -2 -2 -2 -2 -2 -2 -2 -2 -2 -2 -3 -3 -3 -3 -3 -3 -3 -3 -2 -2 -2 -2 -2 -2 -1 -1 -0 -0 -0 0 0 1
-2 -2 -2 -2 -2 -2 -2 -1 -1 -2 -2 -2 -2 -3 -2 -2 -2 -3 -3 -3 -3 -3 -3 -4 -4 -4 -4 -3 -3 -3 -3 -3 -3 -3 -3 -2 -2 -2 -1 -1 -1 -0 -0 -0
-2 -2 -3 -3 -3 -3 -2 -2 -2 -2 -3 -3 -3 -3 -3 -3 -3 -3 -3 -3 -4 -4 -4 -4 -4 -4 -4 -4 -4 -4 -4 -4 -3 -3 -3 -3 -3 -2 -2 -2 -1 -1 -1 -1
-3 -3 -3 -4 -3 -3 -2 -2 -1 -2 -4 -3 -3 -4 -4 -4 -5 -4 -4 -4 -5 -5 -5 -5 -5 -5 -5 -5 -5 -5 -4 -4 -4 -4 -4 -3 -3 -3 -2 -2 -2 -2 -2 -1
-3 -4 -4 -4 -4 -4 -3 -2 -2 -3 -3 -3 -3 -4 -4 -5 -5 -5 -5 -5 -5 -5 -5 -5 -5 -5 -5 -5 -5 -5 -5 -5 -4 -4 -4 -4 -3 -3 -3 -3 -2 -2 -2 -2
-4 -4 -5 -5 -5 -4 -3 -3 -3 -4 -3 -3 -4 -4 -5 -5 -5 -5 -5 -5 -6 -6 -6 -6 -6 -6 -5 -6 -5 -5 -5 -5 -5 -5 -4 -4 -4 -4 -3 -3 -3 -3 -3 -3
-4 -4 -4 -4 -4 -3 -3 -3 -3 -3 -4 -4 -4 -5 -5 -6 -6 -6 -6 -6 -6 -6 -6 -6 -6 -6 -6 -6 -6 -6 -5 -5 -5 -5 -5 -5 -4 -4 -4 -4 -4 -3 -3 -3
-5 -4 -5 -5 -5 -4 -3 -3 -4 -4 -4 -5 -5 -5 -6 -6 -6 -6 -6 -7 -7 -7 -7 -7 -7 -7 -6 -6 -6 -6 -6 -6 -6 -5 -5 -5 -5 -5 -4 -4 -4 -4 -4 -4
-5 -5 -5 -6 -5 -4 -4 -4 -4 -5 -5 -5 -6 -6 -6 -6 -7 -7 -7 -7 -7 -7 -7 -7 -7 -7 -7 -7 -6 -6 -6 -6 -6 -6 -6 -6 -5 -5 -5 -5 -5 -5 -5 -5
-5 -5 -6 -5 -5 -5 -5 -5 -5 -5 -6 -6 -6 -6 -7 -7 -7 -7 -7 -7 -8 -8 -8 -8 -8 -7 -7 -7 -7 -7 -7 -7 -7 -7 -6 -6 -6 -6 -6 -6 -5 -5 -5 -5

GEFSCGP_850_meantemp_240.txt.gz
Temperature
8 6 6 7 7 8 8 7 7 7 7 6 5 5 5 5 5 4 4 5 5 5 6 6 7 7 7 7 7 7 7 8 7 8 8 8 8 8 8 8 8 8 8 8
6 6 7 7 7 7 7 7 6 6 6 6 5 4 4 4 4 4 4 4 4 4 5 6 6 6 6 7 7 7 7 7 7 7 7 7 7 7 7 7 7 8 8 8
7 7 7 7 6 7 6 6 6 6 5 5 5 4 4 4 4 4 4 4 4 4 4 5 5 5 6 6 6 6 6 6 6 6 6 6 6 6 6 7 7 7 7 7
6 6 7 6 6 6 6 6 6 5 4 4 5 4 4 3 3 3 3 3 3 3 3 4 4 5 5 5 5 5 5 5 5 5 5 5 5 6 6 6 6 6 6 7
5 6 6 6 6 6 5 5 5 5 4 3 3 3 3 3 3 3 2 2 3 3 3 3 3 4 4 4 4 5 5 5 5 5 5 5 5 5 5 5 5 6 6 6
5 5 5 5 5 5 5 4 4 3 3 3 3 3 3 2 2 2 2 2 2 2 2 3 3 3 3 3 4 4 4 4 4 4 4 4 4 4 5 5 5 5 6 6
5 5 5 5 5 5 4 4 4 4 3 3 3 2 2 2 1 1 1 1 2 2 2 2 2 3 3 3 3 3 3 3 3 3 4 4 4 4 4 4 4 5 5 5
4 4 4 4 4 4 4 4 4 4 3 3 2 2 1 1 1 1 1 1 1 2 2 1 1 2 2 2 2 2 2 2 2 3 3 3 3 3 3 4 4 4 4 4
3 3 4 4 4 4 4 3 3 2 1 1 1 1 0 1 1 1 1 1 1 1 1 1 1 1 1 2 2 2 2 2 2 2 2 2 2 3 3 3 3 3 4 4
2 2 3 3 4 3 3 2 1 2 2 2 2 1 1 0 0 -0 -1 -0 0 1 0 1 1 1 1 1 1 1 1 1 1 1 1 1 2 2 2 2 3 3 3 3
2 2 2 2 2 2 2 2 1 1 1 1 1 1 0 -0 -0 -1 -1 -0 -0 -0 -0 -0 -0 0 0 0 0 0 0 1 1 1 1 1 1 1 1 2 2 2 3 3
1 0 0 1 1 1 1 1 0 1 0 -0 -0 0 0 -1 -1 -1 -1 -1 -1 -1 -1 -0 -0 -0 -0 -0 -0 -0 -0 -0 -0 -0 0 0 0 0 1 1 1 2 2 2
1 0 1 1 1 1 1 0 -0 -1 -1 -1 -1 -0 -0 -1 -1 -1 -1 -1 -1 -1 -1 -1 -1 -1 -1 -1 -1 -1 -1 -1 -1 -1 -1 -0 -0 -0 0 0 1 1 1 2
1 -0 -0 1 1 0 -0 -0 -0 -1 -1 -2 -1 -1 -1 -1 -2 -2 -2 -2 -2 -2 -2 -2 -2 -2 -2 -2 -2 -2 -2 -2 -2 -1 -1 -1 -1 -1 -0 -0 0 1 1 1
-0 -1 -1 -1 -1 -0 -1 -1 -1 -1 -2 -2 -2 -2 -2 -2 -2 -2 -2 -2 -2 -2 -2 -3 -3 -3 -3 -3 -3 -3 -3 -2 -2 -2 -2 -2 -2 -2 -1 -1 -0 0 0 1
-2 -1 -1 -2 -1 -1 -1 -1 -1 -2 -2 -2 -2 -2 -2 -2 -2 -3 -3 -3 -3 -3 -3 -3 -3 -3 -4 -3 -3 -3 -3 -3 -3 -3 -2 -2 -2 -2 -2 -1 -1 -1 -0 0
-3 -2 -2 -2 -2 -2 -2 -2 -2 -2 -3 -3 -3 -3 -3 -4 -3 -3 -3 -3 -4 -4 -4 -4 -4 -4 -4 -4 -4 -4 -4 -4 -4 -3 -3 -3 -3 -3 -2 -2 -2 -1 -1 -1
-3 -3 -3 -3 -3 -3 -2 -3 -2 -3 -3 -4 -4 -4 -4 -4 -4 -4 -4 -4 -4 -4 -4 -5 -5 -5 -5 -5 -5 -5 -5 -4 -4 -4 -4 -4 -3 -3 -3 -3 -2 -2 -2 -1
-4 -3 -4 -4 -4 -4 -3 -3 -3 -3 -4 -4 -5 -5 -4 -4 -4 -4 -4 -4 -5 -5 -5 -5 -5 -5 -5 -5 -5 -5 -5 -5 -5 -5 -4 -4 -4 -4 -4 -3 -3 -3 -2 -2
-4 -4 -4 -5 -4 -4 -2 -3 -3 -3 -4 -4 -4 -5 -5 -5 -6 -5 -4 -5 -5 -5 -5 -6 -5 -5 -6 -6 -6 -6 -6 -6 -6 -5 -5 -5 -5 -4 -4 -4 -4 -3 -3 -3
-4 -5 -5 -5 -5 -4 -4 -3 -3 -4 -4 -4 -4 -4 -5 -6 -6 -5 -5 -6 -6 -6 -6 -6 -6 -6 -6 -6 -6 -6 -6 -6 -6 -6 -5 -5 -5 -5 -5 -4 -4 -4 -4 -3
-4 -5 -6 -6 -6 -4 -4 -4 -4 -4 -3 -4 -4 -4 -5 -5 -5 -6 -6 -6 -6 -6 -6 -6 -6 -6 -6 -7 -7 -7 -6 -6 -6 -6 -6 -5 -5 -5 -5 -5 -5 -4 -4 -4
-5 -5 -5 -5 -4 -4 -3 -4 -3 -4 -4 -4 -5 -5 -5 -6 -6 -6 -6 -6 -6 -6 -6 -6 -7 -7 -7 -7 -7 -7 -7 -7 -7 -6 -6 -6 -6 -5 -5 -5 -5 -5 -5 -4
-6 -6 -6 -6 -6 -5 -4 -4 -4 -4 -5 -5 -5 -6 -6 -6 -7 -7 -7 -7 -7 -7 -7 -7 -7 -7 -7 -7 -7 -7 -7 -7 -7 -7 -6 -6 -6 -6 -6 -6 -6 -5 -5 -5
-6 -7 -7 -7 -6 -5 -4 -4 -5 -5 -5 -6 -6 -6 -7 -7 -7 -7 -7 -7 -7 -7 -8 -8 -8 -8 -8 -8 -8 -8 -8 -8 -7 -7 -7 -7 -7 -6 -6 -6 -6 -6 -6 -6
-7 -7 -7 -6 -5 -6 -5 -5 -5 -6 -6 -7 -7 -7 -7 -8 -8 -8 -8 -8 -8 -8 -8 -8 -8 -8 -8 -8 -8 -8 -8 -8 -8 -8 -7 -7 -7 -7 -7 -7 -6 -6 -6 -6

GEFSCGP_850_meantemp_246.txt.gz
Temperature
10 12 12 11 11 11 11 11 11 11 9 9 9 9 8 7 6 6 6 5 5 4 4 4 5 5 6 6 6 6 6 6 6 6 6 6 6 7 7 7 7 7 7 7
12 11 10 9 9 10 10 11 11 10 8 8 8 8 8 6 6 5 5 5 4 4 4 4 4 5 5 5 6 6 6 6 5 6 6 6 6 6 6 6 6 6 6 7
11 9 8 9 9 10 10 10 10 9 8 8 8 9 8 7 5 5 4 4 3 3 3 3 3 4 4 4 5 5 5 5 5 5 5 5 5 5 5 5 5 6 6 6
9 8 8 9 9 9 10 8 8 8 9 10 8 10 9 7 6 5 4 4 3 3 2 2 3 3 3 3 4 4 4 4 4 4 4 4 4 4 5 5 5 5 5 5
8 7 8 8 8 8 8 7 7 8 8 8 8 9 10 7 6 5 4 3 3 2 2 2 2 2 2 3 3 3 3 3 3 3 3 3 3 3 4 4 4 5 5 5
7 6 6 7 7 6 7 7 7 7 8 8 8 8 10 7 6 5 4 3 2 2 2 2 2 2 2 2 2 2 2 3 3 3 3 3 3 3 3 3 3 4 4 4
7 7 6 6 7 7 7 8 9 9 9 9 7 7 8 6 4 4 3 2 2 1 1 1 1 1 1 2 2 2 2 2 2 2 2 2 2 2 2 2 3 3 3 4
8 7 6 6 6 7 7 8 8 8 9 9 7 7 7 4 3 2 2 2 1 1 1 1 1 0 1 1 1 1 1 1 1 1 1 1 1 1 1 2 2 2 2 3
8 7 5 5 5 6 6 7 6 7 6 6 8 6 5 4 3 2 2 1 1 1 0 0 -0 -0 -0 0 0 0 1 1 1 1 1 1 1 1 1 1 1 2 2 2
6 6 5 4 5 5 5 6 6 6 6 7 8 7 7 4 3 3 2 1 1 0 -0 -0 -1 -1 -1 -1 -1 -0 -0 -0 -0 -0 -0 0 0 0 0 1 1 1 1 1
5 5 5 5 5 5 5 5 5 6 5 6 7 7 5 4 3 2 2 1 0 -0 -1 -1 -1 -1 -1 -1 -1 -1 -1 -1 -1 -1 -1 -1 -1 -0 -0 -0 0 0 0 1
4 5 5 5 4 3 4 4 5 5 4 4 5 6 4 3 2 1 1 0 -1 -1 -2 -2 -2 -2 -2 -2 -2 -2 -2 -2 -1 -2 -1 -1 -1 -1 -1 -1 -0 -0 -0 0
3 4 4 5 4 3 3 3 3 3 3 4 4 5 3 2 1 1 -0 -1 -1 -2 -2 -2 -2 -2 -2 -2 -2 -2 -2 -2 -2 -2 -2 -2 -2 -2 -2 -2 -1 -1 -1 -0
3 3 4 5 5 4 3 2 2 2 3 3 4 4 3 2 1 0 -1 -1 -2 -2 -2 -3 -3 -3 -3 -3 -3 -3 -3 -3 -3 -3 -3 -3 -3 -2 -2 -2 -2 -2 -1 -1
3 3 2 2 2 2 2 2 2 1 2 3 3 3 3 2 1 -1 -2 -2 -3 -3 -3 -3 -4 -4 -4 -3 -3 -3 -3 -3 -3 -3 -3 -3 -3 -3 -3 -3 -2 -2 -2 -2
1 2 1 1 1 1 1 1 1 1 1 1 1 1 2 0 -1 -2 -2 -3 -3 -3 -4 -4 -4 -4 -4 -4 -4 -4 -4 -4 -4 -4 -4 -4 -4 -4 -3 -3 -3 -3 -2 -2
1 0 1 1 0 0 1 1 1 1 0 1 1 1 -0 -1 -1 -2 -3 -3 -4 -4 -5 -5 -5 -5 -5 -5 -5 -5 -5 -5 -5 -5 -5 -4 -4 -4 -4 -4 -3 -3 -3 -3
-0 -0 0 0 0 -0 2 -0 0 0 -0 -1 -1 -1 -1 -2 -3 -3 -3 -4 -4 -5 -5 -5 -5 -6 -6 -6 -5 -5 -5 -5 -5 -5 -5 -5 -5 -5 -4 -4 -4 -4 -3 -3
-1 -0 -0 -0 0 1 1 -0 -1 -1 -1 -1 -1 -2 -2 -3 -3 -3 -3 -4 -5 -5 -6 -6 -6 -6 -6 -6 -6 -6 -6 -6 -6 -6 -6 -6 -6 -5 -5 -5 -5 -4 -4 -4
-2 -1 -1 -1 -0 1 1 -1 -2 -1 -1 -2 -3 -2 -3 -4 -2 -2 -4 -5 -5 -6 -6 -6 -6 -6 -6 -6 -6 -6 -6 -6 -6 -6 -6 -6 -6 -6 -6 -5 -5 -5 -5 -4
-2 -2 -2 -1 -1 1 -0 -2 -2 -1 -0 -2 -3 -3 -4 -4 -4 -4 -5 -6 -6 -6 -6 -6 -6 -6 -6 -6 -7 -7 -7 -7 -7 -7 -7 -7 -6 -6 -6 -6 -6 -5 -5 -5
-1 -1 -2 -2 -2 -0 -2 -3 -2 -1 -3 -3 -4 -4 -5 -5 -5 -6 -6 -6 -7 -7 -7 -7 -7 -7 -7 -7 -7 -7 -7 -7 -7 -7 -7 -7 -7 -7 -6 -6 -6 -6 -6 -5
-2 -1 -1 -1 -0 -2 -3 -3 -4 -4 -4 -5 -5 -5 -6 -6 -6 -7 -7 -7 -7 -7 -7 -7 -7 -7 -7 -7 -7 -7 -7 -8 -8 -7 -7 -7 -7 -7 -7 -7 -7 -6 -6 -6
-3 -4 -3 -3 -2 -3 -4 -4 -4 -5 -5 -5 -6 -6 -7 -7 -7 -7 -8 -8 -8 -8 -8 -8 -8 -8 -8 -8 -8 -8 -8 -8 -8 -8 -8 -8 -7 -7 -7 -7 -7 -7 -7 -7
-2 -4 -4 -3 -3 -4 -5 -5 -5 -6 -6 -6 -7 -7 -7 -8 -8 -8 -8 -8 -8 -8 -8 -8 -8 -8 -8 -8 -8 -8 -8 -8 -8 -8 -8 -8 -8 -8 -8 -7 -7 -7 -7 -7
-4 -4 -4 -3 -4 -4 -5 -5 -6 -6 -7 -7 -7 -7 -8 -8 -8 -8 -8 -8 -8 -8 -9 -9 -9 -9 -9 -9 -9 -9 -9 -9 -9 -9 -9 -9 -8 -8 -8 -8 -8 -7 -7 -7